Regional Weather Roundup
Issued by NWS

Home | Current Version | Previous Version | Text Only | Print | Product List | Glossary Off
Versions: 1 2 3 4 5 6 7 8 9 10 11 12 13 14 15 16 17 18 19 20 21 22 23 24 25 26 27

000
ASUS45 KCYS 191910
RWRWY

WYOMING REGIONAL WEATHER ROUNDUP
NATIONAL WEATHER SERVICE CHEYENNE WY
100 PM MDT SAT MAY 19 2018

NOTE:  "FAIR" INDICATES FEW OR NO CLOUDS BELOW 12,000 FEET
WITH NO SIGNIFICANT WEATHER AND/OR OBSTRUCTIONS TO VISIBILITY.

WYZ001-192000-
YELLOWSTONE NATIONAL PARK

CITY           SKY/WX    TMP DP  RH WIND       PRES   REMARKS
LK YELLOWSTONE   N/A     52  34  50 VRB3      30.18F
W YELLOWSTONE  NOT AVBL

$$
WYZ002>013-054>058-071-098>099-192000-
NORTHERN WYOMING

CITY           SKY/WX    TMP DP  RH WIND       PRES   REMARKS
JACKSON        FAIR      59  38  45 S9        30.10F
CODY           CLOUDY    49  36  61 N9        30.21F
GREYBULL       LGT RAIN  50  44  80 S5        30.20S
WORLAND        CLOUDY    48  42  80 CALM      30.21R
SHERIDAN       CLOUDY    49  41  74 E7        30.25F
BUFFALO        CLOUDY    44  39  82 MISG      30.26S
GILLETTE       CLOUDY    49  37  63 N10       30.22F
NEWCASTLE      CLOUDY    50  37  62 S5        30.21S

$$
WYZ014>020-022>026-101>103-192000-
CENTRAL WYOMING

CITY           SKY/WX    TMP DP  RH WIND       PRES   REMARKS
BIG PINEY      CLOUDY    51  40  65 SW9       30.16F
PINEDALE       MOCLDY    50  36  57 CALM      30.16F
DUBOIS         CLOUDY    46  36  66 E12G18    30.18S
LANDER         CLOUDY    48  42  80 E14       30.18S
RIVERTON       CLOUDY    46  43  89 E9        30.20S
CASPER         CLOUDY    45  42  89 NE12      30.21S
DOUGLAS        LGT RAIN  45  43  93 N6        30.22S

$$
WYZ021-027>030-104>119-192000-
SOUTHERN WYOMING

CITY           SKY/WX    TMP DP  RH WIND       PRES   REMARKS
EVANSTON       CLOUDY    54  39  57 E8        30.13S
KEMMERER       CLOUDY    50  39  66 E8G16     30.16S
FORT BRIDGER   CLOUDY    55  42  61 NE10      30.16F
ROCK SPRINGS   PTSUNNY   54  40  59 NE12G24   30.14F
DIXON          FAIR      63  38  38 N3        30.09S
RAWLINS        FAIR      54  40  59 NE17G24   30.15S
SARATOGA       CLOUDY    55  36  47 E3        30.12F
LARAMIE        CLOUDY    43  36  76 NE9       30.18R
CHEYENNE       LGT RAIN  39  38  96 N17G23    30.19R WCI  30
TORRINGTON     RAIN      42  42 100 N17       30.18R FOG
PINE BLUFFS    LGT RAIN  41  41 100 N18G26    30.16S

$$




USA.gov is the U.S. government's official web portal to all federal, state and local government web resources and services.